Regional Weather Roundup
Issued by NWS

Home | Current Version | Previous Version | Graphics & Text | Print | Product List | Glossary Off
Versions: 1 2 3 4 5 6 7 8 9 10 11 12 13 14 15 16 17 18 19 20 21 22 23 24 25 26 27 28 29 30 31 32 33 34 35 36 37 38 39 40 41 42 43 44 45 46 47 48 49 50

000
ASUS43 KMKX 172300
RWRWI

WISCONSIN REGIONAL WEATHER ROUNDUP
NATIONAL WEATHER SERVICE MILWAUKEE/SULLIVAN WI
600 PM CDT WED SEP 17 2014

NOTE: "FAIR" INDICATES FEW OR NO CLOUDS BELOW 12,000 FEET WITH NO
SIGNIFICANT WEATHER AND/OR OBSTRUCTIONS TO VISIBILITY.

WIZ001-002-006>008-014>016-023>028-180000-
NORTHWEST WISCONSIN

CITY           SKY/WX    TMP DP  RH WIND       PRES   REMARKS
SUPERIOR ARPT  CLOUDY    48  44  86 NE14G23   30.06R
ASHLAND        CLOUDY    47  43  86 NE15      30.07S
HAYWARD        MOSUNNY   54  48  80 NE10      30.01R
SIREN          SUNNY     71  47  43 W3        29.96S
RICE LAKE      SUNNY     70  49  47 N3        29.98R
LADYSMITH      SUNNY     69  52  54 CALM      29.97S
EAU CLAIRE     NOT AVBL
MENOMONIE      CLOUDY    72  51  47 CALM      29.96R
NEW RICHMOND   SUNNY     71  48  44 CALM      29.96S
OSCEOLA        SUNNY     71  50  47 N5        29.98S
$$

WIZ003>005-009-010-017-018-180000-
NORTH CENTRAL WISCONSIN

CITY           SKY/WX    TMP DP  RH WIND       PRES   REMARKS
WOODRUFF       PTSUNNY   60  49  68 N12       29.99R
RHINELANDER    CLOUDY    62  51  67 N6        29.97R
EAGLE RIVER    CLOUDY    58  46  65 N10G16    29.98R
LAND O LAKES   CLOUDY    54  46  76 N12       30.01R
PHILLIPS       CLOUDY    65  51  59 NE9       29.96R
TOMAHAWK       SUNNY     67  47  48 CALM      29.96S
MEDFORD        SUNNY     65  50  58 W5        29.96S
MERRILL        PTSUNNY   68  52  56 CALM      29.95S
$$

WIZ029-030-035-036-043>047-180000-
CENTRAL WISCONSIN

CITY           SKY/WX    TMP DP  RH WIND       PRES   REMARKS
WAUSAU         MOSUNNY   67  50  54 W7        29.95S
MOSINEE        MOSUNNY   66  54  63 SW5       29.97S
MARSHFIELD     SUNNY     67  51  56 W6        29.97R
STEVENS POINT  SUNNY     67  48  50 W8        29.97S
WAUPACA        SUNNY     71  46  40 W5        29.96S
WAUTOMA        NOT AVBL
WISC RAPIDS    CLOUDY    65  54  67 S5        29.98S
CAMP DOUGLAS   NOT AVBL
$$

WIZ011>013-019>022-031-037>040-048>050-180000-
NORTHEAST WISCONSIN

CITY           SKY/WX    TMP DP  RH WIND       PRES   REMARKS
ANTIGO         SUNNY     66  48  52 W7        29.96R
STURGEON BAY   CLEAR     66  50  55 SW7       29.94F
GREEN BAY      CLEAR     68  51  54 SW5       29.94F
MANITOWOC      NOT AVBL
APPLETON       MOSUNNY   68  46  45 W6        29.96S
CLINTONVILLE   MOSUNNY   70  48  46 W8        29.94S
OSHKOSH        SUNNY     67  51  56 SW5       29.96S
$$

WIZ032>034-041-042-053>061-180000-
SOUTHWEST WISCONSIN

CITY           SKY/WX    TMP DP  RH WIND       PRES   REMARKS
LA CROSSE      PTSUNNY   68  55  63 SW3       29.96S
SPARTA         MOSUNNY   69  48  48 W5        29.98S
VIROQUA        CLOUDY    67  49  51 CALM      29.98S
BOSCOBEL       SUNNY     71  51  49 NW3       29.96S
PRAIRIE DU CHI MOSUNNY   69  48  47 CALM      29.96S
PLATTEVILLE    NOT AVBL
$$

WIZ056-057-062-063-064-067-068-180000-
SOUTH CENTRAL WISCONSIN

CITY           SKY/WX    TMP DP  RH WIND       PRES   REMARKS
BARABOO/DELLS  SUNNY     68  46  45 W5        29.97S
LONE ROCK      NOT AVBL
WATERTOWN      SUNNY     67  48  50 W3        29.96S
MADISON        MOSUNNY   67  50  54 CALM      29.97S
MIDDLETON      FAIR      68  50  51 W3        29.98S
MONROE         SUNNY     68  50  52 CALM      29.97S
JANESVILLE     MOSUNNY   70  46  43 CALM      29.96S
$$

WIZ051-052-058>065-066-070>072-180000-
SOUTHEAST WISCONSIN

CITY           SKY/WX    TMP DP  RH WIND       PRES   REMARKS
MILWAUKEE      PTCLDY    62  48  60 SE14      29.98R
WAUKESHA       PTCLDY    64  46  52 NW6       29.98S
MILWAUKEE/TIMM PTCLDY    64  46  52 SE6       29.98S
RACINE         CLEAR     63  47  55 S12       29.99F
BURLINGTON     SUNNY     65  49  54 CALM      29.97S
KENOSHA        CLEAR     63  50  62 SE7       29.98S
FOND DU LAC    MOSUNNY   65  51  60 SW5       29.97S
SHEBOYGAN      PTCLDY    67  48  50 W3        29.97S
WEST BEND      MOCLDY    66  43  42 CALM      29.97S
JUNEAU         SUNNY     67  47  49 W3        29.98S
$$

LSZ147-162-180000-
LAKE SUPERIOR

STATION/POSITION TIME  TEMP    WIND        PRES    WAVE
                       AIR SEA DIR/SP/G            HT/PER
                 (UTC) (F)     (DEG/KT/KT) (MB)    (FT/S)
W MID LAKE BUOY  2150   44 47   60/ 19/ 21 1018.7R   5/ 6
DEVILS ISLAND    2200   45      60/ 20/ 22 1019.3R
PORT WING        2200   51      50/ 15/ 18 1017.9R
SAXON HARBOR     2200   49      40/ 17/ 20 1017.9R
$$

LMZ867-665-643>646-180000-
LAKE MICHIGAN

STATION/POSITION TIME  TEMP    WIND        PRES    WAVE
                       AIR SEA DIR/SP/G            HT/PER
                 (UTC) (F)     (DEG/KT/KT) (MB)    (FT/S)
N MID LAKE BUOY  2150   59 58  210/ 14/ 16 1013.9R   2/ 4
NORTHPORT PIER   2200   63     160/  5/  9 1013.5S
SISTER BAY       2212   67     150/  9/ 12   N/A
KEWAUNEE LAKESHO 2200   58     170/  9/ 11 1013.3R
SHEBOYGAN LAKESH 2200   61 49  180/ 16/ 17 1015.2F
PORT WASHINGTON  2200   64     200/  4/  7 1015.6F
ATWATER BUOY     2200   61     150/ 10/ 12 1016.1F
MILWAUKEE LAKESH 2200   60     150/ 10/ 11   N/A
S MID LAKE BUOY  2150   62 63  140/  4/  4 1016.0F   1
KENOSHA   LAKESH 2200   63     160/ 12/ 13 1014.9S
$$

TC  - TEMPERATURE IN CELSIUS
VSB - VISIBILITY IN STATUTE MILES
WCI - WIND CHILL INDEX
HX  - HEAT INDEX



USA.gov is the U.S. government's official web portal to all federal, state and local government web resources and services.